Location: Bonn
(50.7330°N, 7.1000°E)
Time: 02:05:22
(UTC+02:00)

Iridium 67 - Visible Passes

Search period start: 27 June 2017 00:00
Search period end: 07 July 2017 00:00
Orbit: 776 x 779 km, 86.4° (Epoch: 26 June)

Date Brightness Start Highest point End Pass type
(mag) Time Alt. Az. Time Alt. Az. Time Alt. Az.
27 Jun 6.6 22:33:31 10° SSW 22:38:32 47° W 22:43:35 10° N visible
28 Jun 8.3 23:44:05 10° W 23:46:34 13° WNW 23:49:04 10° NW visible
29 Jun 8.0 23:08:37 10° WSW 23:12:36 22° WNW 23:16:35 10° NNW visible
30 Jun 7.3 22:34:01 10° SW 22:38:45 34° WNW 22:43:31 10° N visible
02 Jul 8.3 23:09:44 10° WSW 23:12:56 16° WNW 23:16:10 10° NNW visible
03 Jul 7.8 22:34:41 10° SW 22:39:01 26° WNW 22:43:22 10° NNW visible
05 Jul 8.6 23:11:22 10° W 23:13:20 12° WNW 23:15:18 10° NW visible
06 Jul 8.2 22:35:35 10° WSW 22:39:20 20° WNW 22:43:05 10° NNW visible
